Hauptseite
METAR-TAF:

METAR-TAF

Flughäfen :

Bohrplattform

Goeree Le, Niederlande

Breite: 51-55-33N, Länge: 3-40-12E, Höhe: 19 m

Beobachtung

Neuester Wetterbericht von vor 33 Minuten, um 00:25 UTC
Wind 20 kt aus Ost
Temperatur 15°C
Luftfeuchtigkeit 51%
Luftdruck 1001 hPa
Sichtweite 10 km oder mehr

METAR: EHSC 230025Z AUTO 10020KT 9999 ///////// 15/05 Q1001 W10/H4

Zeit: 02:58 (00:58 UTC)


TAF: fehlend

Wetterbeobachtungen und Prognosen von mehr als 4000 Flughäfen (METAR und TAF Bericht).

Die verfügbaren Stationen werden durch gelbe und rote Markierungen auf der Karte dargestellt.

Führen Sie die Maus auf sie, um den Namen der Station zu sehen.

Darauf klicken, um die Beobachtung von Wetterbeobachtungen und Prognosen zu sehen.

Um die Karte zu ändern : klicken Sie auf den grünen Tasten mit einem schwarzen Kreuz Zum Vergrößern, auf den grünen Button mit einem Gedankenstrich zu verkleinern, oder auf die grünen Pfeile für benachbarte Karten.


METAR-TAF: